Regional Weather Roundup
Issued by NWS

Home | Current Version | Previous Version | Text Only | Print | Product List | Glossary On
Versions: 1 2 3 4 5 6 7 8 9 10 11 12 13 14 15 16 17 18 19 20 21 22 23 24 25 26 27 28 29 30 31 32 33 34 35 36 37 38 39 40 41 42 43 44 45 46 47 48 49 50
000
ASUS43 KLSX 021807
RWRMO

WEATHER SUMMARY FOR MISSOURI
NATIONAL WEATHER SERVICE SPRINGFIELD MO
100 PM CDT SUN AUG 02 2015

NOTE: "FAIR" INDICATES FEW OR NO CLOUDS BELOW 12,000 FEET WITH NO
       SIGNIFICANT WEATHER AND/OR OBSTRUCTIONS TO VISIBILITY.
       CURRENT SKY AND/OR WEATHER CONDITIONS ARE NOT AVAILABLE FOR
       CHILLICOTHE AND FARMINGTON.

MOZ001>031-035>038-043-044-053-054-021900-
...NORTHERN AND WESTERN MISSOURI...

CITY           SKY/WX    TMP DP  RH WIND       PRES   REMARKS
KANSAS CTY INT MOSUNNY   87  70  56 W12       29.91F HX  92
6HR MIN TEMP:  72; 6HR MAX TEMP:  88;

KANSAS C DTWN  SUNNY     90  68  48 SW14      29.89F HX  94
6HR MIN TEMP:  75; 6HR MAX TEMP:  90;

LEE`S SUMMIT   SUNNY     89  67  47 SW14      29.92F HX  92
6HR MIN TEMP:  72; 6HR MAX TEMP:  90;

ST JOSEPH      MOSUNNY   87  75  67 SW12      29.88F HX  96
6HR MIN TEMP:  71; 6HR MAX TEMP:  87;

CHILLICOTHE      N/A     89  72  56 SW12G20   29.88F HX  96
6HR MIN TEMP:  68; 6HR MAX TEMP:  89;

KIRKSVILLE     SUNNY     88  73  61 W9G17     29.89F HX  95
6HR MIN TEMP:  69; 6HR MAX TEMP:  88; 6HR PCP: TRACE;


$$
MOZ066>068-077>081-088>096-101>105-021900-
...SOUTHWEST MISSOURI...

CITY           SKY/WX    TMP DP  RH WIND       PRES   REMARKS
SPRINGFIELD    SUNNY     90  62  39 W12       29.98F HX  90
6HR MIN TEMP:  70; 6HR MAX TEMP:  91;

JOPLIN         MOSUNNY   92  66  42 SW12      29.97F HX  94
6HR MIN TEMP:  70; 6HR MAX TEMP:  93;


$$
MOZ032>034-039>042-045>050-055>058-069>072-021900-
...CENTRAL MISSOURI...

CITY           SKY/WX    TMP DP  RH WIND       PRES   REMARKS
COLUMBIA       SUNNY     88  69  53 SW13      29.93F HX  92
6HR MIN TEMP:  70; 6HR MAX TEMP:  88;

JEFFERSON CITY SUNNY     89  65  44 W10       29.91F HX  91
6HR MIN TEMP:  69; 6HR MAX TEMP:  89;

ROLLA          SUNNY     89  66  46 SW10      29.94F HX  91
6HR MIN TEMP:  70; 6HR MAX TEMP:  89;

SEDALIA        SUNNY     89  68  49 W10G20    29.93F HX  93
6HR MIN TEMP:  70; 6HR MAX TEMP:  89;

WHITEMAN AFB   SUNNY     89  67  47 SW15      29.91S HX  92
OSAGE BEACH    SUNNY     90  66  45 SW10      29.95F HX  92

$$
MOZ051-052-059>065-021900-
...EAST CENTRAL MISSOURI...

CITY           SKY/WX    TMP DP  RH WIND       PRES   REMARKS
ST LOUIS INTL  MOSUNNY   93  69  45 W13G25    29.92F HX  98
6HR MIN TEMP:  77; 6HR MAX TEMP:  93;

SPIRIT OF STL  MOSUNNY   91  71  51 W9G16     29.90F HX  97
6HR MIN TEMP:  72; 6HR MAX TEMP:  91;

ST CHARLES     SUNNY     92  69  47 W13       29.90F HX  97
6HR MIN TEMP:  73; 6HR MAX TEMP:  92;


$$
MOZ072>076-082>087-097>100-106>115-021900-
...SOUTH CENTRAL AND SOUTHEAST MISSOURI...

CITY           SKY/WX    TMP DP  RH WIND       PRES   REMARKS
CAPE GIRARDEAU MOSUNNY   88  72  58 SW6       29.95F HX  94
6HR MIN TEMP:  71; 6HR MAX TEMP:  88;

FARMINGTON     SUNNY     90  68  48 W5        30.00F HX  93
6HR MIN TEMP:  72; 6HR MAX TEMP:  90;

POPLAR BLUFF   PTSUNNY   89  73  59 S6        29.95F HX  97
6HR MIN TEMP:  73; 6HR MAX TEMP:  89;

WEST PLAINS    SUNNY     88  64  44 SW8       30.00F
6HR MIN TEMP:  68; 6HR MAX TEMP:  89;


$$



USA.gov is the U.S. government's official web portal to all federal, state and local government web resources and services.